| time (UTC) | temp C | wind direction | speed KPH | gust KPH | rain 1hr cm | rain 24hr cm | rain mn cm | humidity % | barometer mb |
| 20260904111527 | 16 | 147 | 0.0 | 1.6 | 0.00 | 0.15 | 0.00 | 91 | 1007.7 |
| 20260904110027 | 16 | 147 | 0.0 | 1.6 | 0.00 | 0.15 | 0.00 | 91 | 1007.5 |
| 20260904104527 | 16 | 147 | 0.0 | 0.0 | 0.00 | 0.18 | 0.00 | 91 | 1007.6 |
| 20260904103029 | 16 | 147 | 0.0 | 1.6 | 0.00 | 0.18 | 0.00 | 91 | 1007.4 |
| 20260904101526 | 16 | 153 | 0.0 | 1.6 | 0.00 | 0.18 | 0.00 | 91 | 1007.3 |
| 20260904100024 | 16 | 144 | 0.0 | 1.6 | 0.00 | 0.18 | 0.00 | 91 | 1007.2 |
| 20260904094535 | 16 | 144 | 0.0 | 3.2 | 0.00 | 0.20 | 0.00 | 91 | 1007.2 |
| 20260904093020 | 17 | 144 | 0.0 | 3.2 | 0.00 | 0.20 | 0.00 | 91 | 1007.3 |
| 20260904091521 | 17 | 144 | 0.0 | 0.0 | 0.00 | 0.20 | 0.00 | 91 | 1007.3 |
| 20260904090018 | 17 | 144 | 0.0 | 3.2 | 0.00 | 0.20 | 0.00 | 91 | 1007.4 |
| 20260904084518 | 17 | 144 | 1.6 | 3.2 | 0.00 | 0.46 | 0.00 | 91 | 1007.6 |
| 20260904083017 | 17 | 144 | 0.0 | 0.0 | 0.00 | 0.46 | 0.00 | 91 | 1007.5 |
| 20260904081518 | 17 | 144 | 0.0 | 1.6 | 0.00 | 0.46 | 0.00 | 91 | 1007.4 |
| 20260904080016 | 17 | 144 | 0.0 | 1.6 | 0.00 | 0.46 | 0.00 | 91 | 1007.2 |
| 20260904074516 | 17 | 144 | 0.0 | 0.0 | 0.00 | 0.46 | 0.00 | 91 | 1007.2 |
| 20260904073013 | 17 | 145 | 0.0 | 3.2 | 0.00 | 0.46 | 0.00 | 91 | 1007.6 |
| 20260904071516 | 17 | 145 | 0.0 | 1.6 | 0.00 | 0.46 | 0.00 | 91 | 1007.6 |
| 20260904070015 | 17 | 145 | 1.6 | 3.2 | 0.00 | 0.46 | 0.00 | 91 | 1007.8 |
| 20260904064510 | 17 | 145 | 0.0 | 4.8 | 0.00 | 0.48 | 0.00 | 91 | 1007.8 |
| 20260904063012 | 17 | 69 | 0.0 | 3.2 | 0.00 | 0.48 | 0.00 | 91 | 1007.9 |
| 20260904061505 | 17 | 44 | 0.0 | 3.2 | 0.00 | 0.48 | 0.00 | 91 | 1008.2 |
| 20260904060004 | 17 | 86 | 0.0 | 1.6 | 0.00 | 0.48 | 0.00 | 91 | 1008.4 |
| 20260904054502 | 17 | 86 | 0.0 | 1.6 | 0.00 | 0.48 | 0.00 | 91 | 1008.6 |
| 20260904053101 | 17 | 86 | 0.0 | 3.2 | 0.00 | 0.48 | 0.00 | 91 | 1008.8 |
| 20260904051559 | 17 | 86 | 0.0 | 1.6 | 0.00 | 0.48 | 0.00 | 91 | 1008.8 |
| 20260904050059 | 17 | 86 | 0.0 | 1.6 | 0.00 | 0.48 | 0.00 | 91 | 1009.0 |
| 20260904044557 | 17 | 86 | 0.0 | 1.6 | 0.00 | 0.48 | 0.00 | 91 | 1009.1 |
| 20260904043104 | 17 | 86 | 0.0 | 3.2 | 0.00 | 0.48 | 0.00 | 91 | 1009.0 |
| 20260904041553 | 17 | 86 | 0.0 | 1.6 | 0.00 | 0.48 | 0.00 | 91 | 1009.2 |
| 20260904040053 | 17 | 86 | 1.6 | 3.2 | 0.00 | 0.48 | 0.00 | 91 | 1009.3 |
| 20260904034550 | 17 | 86 | 0.0 | 1.6 | 0.00 | 0.48 | 0.48 | 91 | 1009.8 |
| 20260904033049 | 17 | 86 | 0.0 | 0.0 | 0.00 | 0.48 | 0.48 | 90 | 1009.8 |
| 20260904031550 | 17 | 86 | 0.0 | 0.0 | 0.00 | 0.48 | 0.48 | 90 | 1009.7 |
| 20260904030048 | 17 | 86 | 0.0 | 1.6 | 0.00 | 0.48 | 0.48 | 90 | 1009.7 |
| 20260904024558 | 17 | 86 | 0.0 | 0.0 | 0.00 | 0.48 | 0.48 | 90 | 1009.9 |
| 20260904023047 | 17 | 86 | 0.0 | 0.0 | 0.00 | 0.48 | 0.48 | 90 | 1010.1 |
| 20260904021553 | 17 | 86 | 0.0 | 1.6 | 0.00 | 0.48 | 0.48 | 90 | 1010.2 |
| 20260904020046 | 17 | 86 | 0.0 | 0.0 | 0.00 | 0.48 | 0.48 | 90 | 1010.1 |
| 20260904014551 | 17 | 86 | 0.0 | 0.0 | 0.00 | 0.48 | 0.48 | 90 | 1010.3 |
| 20260904013106 | 17 | 86 | 0.0 | 1.6 | 0.00 | 0.48 | 0.48 | 90 | 1010.5 |
| 20260904011544 | 17 | 86 | 0.0 | 1.6 | 0.00 | 0.48 | 0.48 | 90 | 1010.3 |
| 20260904010045 | 17 | 86 | 0.0 | 1.6 | 0.00 | 0.48 | 0.48 | 90 | 1010.5 |
| 20260904004544 | 17 | 86 | 0.0 | 1.6 | 0.00 | 0.48 | 0.48 | 90 | 1010.4 |
| 20260904003044 | 17 | 86 | 0.0 | 1.6 | 0.00 | 0.48 | 0.48 | 90 | 1010.2 |
| 20260904001557 | 17 | 86 | 0.0 | 1.6 | 0.00 | 0.48 | 0.48 | 90 | 1010.0 |
| 20260904000042 | 17 | 86 | 0.0 | 0.0 | 0.00 | 0.48 | 0.48 | 90 | 1009.9 |
| 20260903234542 | 17 | 86 | 0.0 | 1.6 | 0.00 | 0.48 | 0.48 | 90 | 1009.9 |
| 20260903233044 | 17 | 86 | 0.0 | 1.6 | 0.00 | 0.48 | 0.48 | 90 | 1009.7 |
| 20260903231541 | 17 | 86 | 0.0 | 0.0 | 0.00 | 0.48 | 0.48 | 89 | 1010.1 |
| 20260903230038 | 17 | 86 | 0.0 | 0.0 | 0.00 | 0.48 | 0.48 | 89 | 1010.3 |
| 20260903224541 | 17 | 86 | 0.0 | 1.6 | 0.00 | 0.48 | 0.48 | 89 | 1010.0 |
| 20260903223041 | 17 | 86 | 0.0 | 1.6 | 0.00 | 0.48 | 0.48 | 89 | 1010.1 |
| 20260903221536 | 17 | 86 | 0.0 | 1.6 | 0.00 | 0.48 | 0.48 | 89 | 1010.2 |
| 20260903220035 | 17 | 86 | 0.0 | 3.2 | 0.00 | 0.48 | 0.48 | 89 | 1010.2 |
| 20260903214538 | 17 | 86 | 0.0 | 1.6 | 0.00 | 0.48 | 0.48 | 89 | 1010.3 |
| 20260903213047 | 17 | 86 | 0.0 | 1.6 | 0.00 | 0.48 | 0.48 | 89 | 1010.4 |
| 20260903211534 | 17 | 86 | 0.0 | 3.2 | 0.00 | 0.48 | 0.48 | 89 | 1010.3 |
| 20260903210034 | 18 | 86 | 0.0 | 1.6 | 0.00 | 0.48 | 0.48 | 89 | 1010.3 |
| 20260903204533 | 18 | 86 | 0.0 | 1.6 | 0.00 | 0.48 | 0.48 | 89 | 1010.4 |
| 20260903203031 | 18 | 86 | 0.0 | 3.2 | 0.00 | 0.48 | 0.48 | 89 | 1010.5 |
| 20260903201530 | 18 | 86 | 0.0 | 3.2 | 0.00 | 0.48 | 0.48 | 89 | 1010.5 |
| 20260903200030 | 18 | 88 | 0.0 | 3.2 | 0.00 | 0.48 | 0.48 | 89 | 1010.5 |
| 20260903194529 | 18 | 65 | 0.0 | 1.6 | 0.00 | 0.48 | 0.48 | 89 | 1010.6 |
| 20260903193027 | 18 | 65 | 0.0 | 3.2 | 0.00 | 0.48 | 0.48 | 89 | 1010.7 |
| 20260903191536 | 18 | 65 | 0.0 | 1.6 | 0.00 | 0.48 | 0.48 | 89 | 1010.8 |
| 20260903190022 | 18 | 65 | 1.6 | 4.8 | 0.00 | 0.48 | 0.48 | 89 | 1011.0 |
| 20260903184520 | 18 | 202 | 0.0 | 1.6 | 0.00 | 0.48 | 0.48 | 89 | 1011.2 |
| 20260903183027 | 18 | 202 | 0.0 | 1.6 | 0.00 | 0.48 | 0.48 | 89 | 1011.3 |
| 20260903181518 | 17 | 202 | 0.0 | 1.6 | 0.00 | 0.48 | 0.48 | 89 | 1011.5 |
| 20260903180028 | 17 | 188 | 0.0 | 3.2 | 0.00 | 0.48 | 0.48 | 89 | 1011.5 |
| 20260903174523 | 17 | 188 | 0.0 | 3.2 | 0.00 | 0.48 | 0.48 | 89 | 1011.5 |
| 20260903173018 | 18 | 188 | 0.0 | 4.8 | 0.00 | 0.48 | 0.48 | 89 | 1011.4 |
| 20260903171514 | 18 | 324 | 0.0 | 1.6 | 0.00 | 0.48 | 0.48 | 89 | 1011.4 |
| 20260903170015 | 17 | 324 | 1.6 | 3.2 | 0.00 | 0.48 | 0.48 | 89 | 1011.4 |
| 20260903164513 | 17 | 324 | 1.6 | 4.8 | 0.00 | 0.48 | 0.48 | 90 | 1011.7 |
| 20260903163009 | 17 | 234 | 0.0 | 3.2 | 0.00 | 0.48 | 0.48 | 89 | 1011.8 |
| 20260903161509 | 17 | 234 | 0.0 | 3.2 | 0.00 | 0.48 | 0.48 | 90 | 1011.9 |
| 20260903160005 | 17 | 234 | 0.0 | 3.2 | 0.00 | 0.48 | 0.48 | 90 | 1012.2 |
| 20260903154505 | 17 | 232 | 0.0 | 3.2 | 0.00 | 0.48 | 0.48 | 90 | 1012.3 |
| 20260903153002 | 17 | 146 | 0.0 | 4.8 | 0.00 | 0.48 | 0.48 | 90 | 1012.5 |
| 20260903151600 | 17 | 165 | 0.0 | 4.8 | 0.00 | 0.48 | 0.48 | 90 | 1012.7 |
| 20260903144556 | 17 | 181 | 0.0 | 3.2 | 0.03 | 0.48 | 0.48 | 90 | 1013.0 |
| 20260903143056 | 16 | 181 | 0.0 | 3.2 | 0.03 | 0.48 | 0.48 | 90 | 1013.0 |
| 20260903141552 | 16 | 181 | 1.6 | 3.2 | 0.03 | 0.48 | 0.48 | 90 | 1013.2 |
| 20260903140055 | 16 | 181 | 0.0 | 3.2 | 0.00 | 0.46 | 0.46 | 90 | 1013.2 |
| 20260903134611 | 16 | 182 | 0.0 | 1.6 | 0.00 | 0.46 | 0.46 | 90 | 1013.3 |
| 20260903133051 | 16 | 182 | 0.0 | 3.2 | 0.00 | 0.46 | 0.46 | 90 | 1013.3 |
| 20260903131549 | 16 | 182 | 0.0 | 3.2 | 0.03 | 0.46 | 0.46 | 90 | 1013.3 |
| 20260903130049 | 15 | 182 | 0.0 | 1.6 | 0.05 | 0.46 | 0.46 | 91 | 1013.5 |
| 20260903124542 | 15 | 182 | 0.0 | 1.6 | 0.05 | 0.46 | 0.46 | 90 | 1013.7 |
| 20260903123041 | 15 | 182 | 0.0 | 3.2 | 0.08 | 0.46 | 0.46 | 90 | 1013.9 |
| 20260903121550 | 15 | 182 | 0.0 | 1.6 | 0.08 | 0.43 | 0.43 | 90 | 1013.9 |
| 20260903120051 | 15 | 182 | 0.0 | 1.6 | 0.08 | 0.41 | 0.41 | 90 | 1014.2 |
| 20260903114557 | 15 | 182 | 0.0 | 3.2 | 0.10 | 0.41 | 0.41 | 90 | 1014.3 |
| 20260903113039 | 15 | 182 | 0.0 | 1.6 | 0.08 | 0.38 | 0.38 | 90 | 1014.4 |